Flag Weather past 2 weeks in Petersburg, Indiana, U.S.A.

Now
34 °F

Clear.


Feels Like: 34 °F
Forecast: 36 / 57 °F
Wind: No wind

Location: Huntingburg Airport

Current Time: Oct 30, 2014 at 8:34:10 AM

Latest Report: Oct 30, 2014 at 7:55 AM


Visibility: 1 mi

Pressure: 30.18 "Hg

Humidity: 87%

Dew point: 30 °F

Location of PetersburgLocation

Historic Weather in Petersburg — Graph

°F

Petersburg temperature yesterday

Maximum temperature yesterday: 59 °F (at 1:35 PM)
Minimum temperature yesterday: 41 °F (at 8:35 AM)
Average temperature yesterday: 51 °F

Past Weeks' High & Low Weather Summary

 TemperatureHumidityPressure
High81 °F (Oct 27, 2:15 PM)94% (Oct 15, 1:35 PM)30.33 "Hg (Oct 15, 1:35 PM)
Low34 °F (Oct 30, 6:15 AM)27% (Oct 26, 3:15 PM)29.73 "Hg (Oct 15, 2:35 PM)
Average55 °F71%30.03 "Hg
* Reported Oct 15 12:15 PM — Oct 30 7:35 AM, Petersburg, Weather by CustomWeather, © 2014

Note: Actual official high and low records may vary slightly from our data, if they occured in-between our weather recording intervals... More about our weather records

Advertising

Petersburg weather history for previous 24 hours

 ConditionsComfort  
Time TempWeatherWind HumidityBarometerVisibility
7:35 AM
Oct 30
36 °FClear.No wind81%30.18 "Hg4 mi
7:15 AM36 °FClear.No wind81%30.18 "Hg5 mi
6:55 AM36 °FClear.No wind87%30.18 "Hg5 mi
6:35 AM36 °FClear.No wind81%30.18 "Hg3 mi
6:15 AM34 °FClear.No wind87%30.18 "Hg2 mi
5:55 AM36 °FClear.3 mph87%30.17 "Hg4 mi
5:35 AM36 °FClear.No wind81%30.17 "Hg4 mi
5:15 AM37 °FClear.No wind87%30.17 "Hg5 mi
4:55 AM37 °FClear.No wind87%30.16 "Hg5 mi
4:35 AM36 °FClear.No wind87%30.17 "Hg5 mi
4:15 AM37 °FClear.No wind87%30.17 "Hg5 mi
3:55 AM37 °FClear.12 mph87%30.17 "Hg7 mi
3:35 AM37 °FClear.No wind87%30.17 "Hg9 mi
3:15 AM37 °FClear.No wind87%30.17 "Hg10 mi
2:55 AM37 °FClear.No wind81%30.17 "Hg10 mi
2:35 AM39 °FClear.No wind81%30.16 "Hg10 mi
2:15 AM39 °FClear.No wind81%30.17 "Hg10 mi
1:55 AM39 °FClear.No wind81%30.17 "Hg10 mi
1:35 AM39 °FClear.No wind81%30.17 "Hg10 mi
1:15 AM41 °FClear.No wind76%30.17 "Hg10 mi
12:55 AM41 °FClear.No wind76%30.17 "Hg10 mi
12:35 AM43 °FClear.No wind71%30.16 "Hg10 mi
12:15 AM43 °FClear.No wind71%30.17 "Hg10 mi
11:55 PM
Oct 29
43 °FClear.5 mph71%30.16 "Hg10 mi
11:35 PM45 °FClear.5 mph66%30.16 "Hg10 mi
11:15 PM45 °FClear.5 mph66%30.16 "Hg10 mi
10:55 PM45 °FClear.6 mph66%30.16 "Hg10 mi
10:35 PM45 °FClear.3 mph66%30.15 "Hg10 mi
10:15 PM45 °FClear.No wind66%30.15 "Hg10 mi
9:55 PM46 °FClear.No wind62%30.15 "Hg10 mi
9:35 PM45 °FClear.No wind66%30.15 "Hg10 mi
9:15 PM46 °FClear.3 mph62%30.15 "Hg10 mi
8:55 PM48 °FClear.5 mph58%30.15 "Hg10 mi
8:35 PM48 °FClear.5 mph58%30.15 "Hg10 mi
7:55 PM48 °FClear.5 mph58%30.15 "Hg10 mi
7:35 PM48 °FSunny.6 mph62%30.15 "Hg10 mi
6:55 PM52 °FSunny.9 mph54%30.13 "Hg10 mi
6:35 PM54 °FSunny.8 mph51%30.13 "Hg10 mi
6:15 PM54 °FSunny.10 mph51%30.13 "Hg10 mi
5:55 PM55 °FSunny.8 mph51%30.12 "Hg10 mi
5:35 PM57 °FPassing clouds.14 mph48%30.12 "Hg10 mi
4:55 PM57 °FSunny.17 mph48%30.12 "Hg10 mi
4:35 PM59 °FSunny.15 mph45%30.11 "Hg10 mi
4:15 PM59 °FSunny.15 mph45%30.11 "Hg10 mi
3:55 PM59 °FSunny.9 mph45%30.11 "Hg10 mi
3:35 PM59 °FSunny.13 mph48%30.11 "Hg10 mi
3:15 PM59 °FSunny.13 mph45%30.11 "Hg10 mi
2:55 PM59 °FSunny.15 mph45%30.11 "Hg10 mi
2:35 PM59 °FSunny.16 mph45%30.12 "Hg10 mi
2:15 PM59 °FSunny.12 mph45%30.12 "Hg10 mi
1:55 PM59 °FSunny.12 mph48%30.13 "Hg10 mi
1:35 PM59 °FSunny.14 mph48%30.13 "Hg10 mi
1:15 PM57 °FSunny.12 mph51%30.14 "Hg10 mi
12:55 PM57 °FSunny.9 mph51%30.15 "Hg10 mi
12:35 PM57 °FSunny.9 mph51%30.15 "Hg10 mi
12:15 PM57 °FSunny.9 mph51%30.15 "Hg10 mi
11:55 AM57 °FSunny.9 mph51%30.16 "Hg10 mi
11:35 AM55 °FSunny.9 mph55%30.16 "Hg10 mi
11:15 AM55 °FSunny.7 mph55%30.16 "Hg10 mi
10:55 AM54 °FSunny.6 mph58%30.16 "Hg10 mi
10:35 AM54 °FSunny.10 mph54%30.15 "Hg10 mi
10:15 AM52 °FSunny.3 mph62%30.15 "Hg10 mi
9:55 AM50 °FSunny.3 mph67%30.15 "Hg10 mi
9:35 AM48 °FSunny.No wind71%30.14 "Hg8 mi
9:15 AM45 °FSunny.No wind81%30.14 "Hg10 mi
8:55 AM43 °FClear.No wind81%30.13 "Hg10 mi
8:35 AM41 °FClear.No wind81%30.13 "Hg10 mi
8:15 AM43 °FClear.No wind81%30.12 "Hg10 mi
Weather by CustomWeather, © 2014

See weather overviewHow to use our weather pages